Location: Brabourne
(51.1333°N, 1.0000°E)
Time: 20:36:28
(UTC+00:00)

IRS-1D - Pass Details

Date: 25 October 2021
Orbit: 739 x 817 km, 98.6° (Epoch: 04 December)

Event Time Altitude Azimuth Distance (km) Brightness Sun altitude
Rises 03:18:19 0° 11° (N) 3,272 7.2 -31.3°
Reaches altitude 10° 03:20:43 10° 5° (N) 2,328 6.3 -31.0°
Enters shadow 03:22:37 22° 356° (N) 1,638 5.3 -30.7°
